Location: Ferchesar
(52.6477°N, 12.4298°E)
Time: 21:37:35
(UTC+02:00)

A-11 Canister half - Pass Details

Date: 12 March 2021
Orbit: 1525 x 1683 km, 47.3° (Epoch: 11 April)

Event Time Altitude Azimuth Distance (km) Brightness Sun altitude
Exits shadow 04:49:16 21° 253° (WSW) 3,010 9.9 -16.2°
Maximum altitude 04:56:07 65° 179° (S) 1,704 9.1 -15.2°
Drops below altitude 10° 05:05:21 10° 100° (E) 3,717 12.1 -13.8°
Sets 05:08:24 0° 98° (E) 4,688 13.0 -13.4°
